KC5TIL Weather Reports


Display with metric or nautical units.
time (UTC)temp
F
wind
direction
speed
MPH
gust
MPH
rain 1hr
in
rain 24hr
in
rain mn
in
humidity
%
barometer
mb
20260831151137 91 127 1.0 2.0 0.00 0.00 0.00 51 1018.1
20260831150632 92 128 1.0 5.0 0.00 0.00 0.00 50 1018.2
20260831150128 92 133 1.0 3.0 0.00 0.00 0.00 52 1018.1
20260831145621 91 128 2.0 2.0 0.00 0.00 0.00 54 1018.1
20260831145118 90 197 2.0 5.0 0.00 0.00 0.00 55 1018.1
20260831144614 89 130 1.0 3.0 0.00 0.00 0.00 57 1018.1
20260831144109 88 170 2.0 5.0 0.00 0.00 0.00 58 1018.0
20260831143609 88 218 3.0 5.0 0.00 0.00 0.00 58 1017.8
20260831143104 88 173 2.0 6.0 0.00 0.00 0.00 58 1018.2
20260831142601 89 186 3.0 5.0 0.00 0.00 0.00 59 1017.9
20260831142056 88 154 1.0 5.0 0.00 0.00 0.00 61 1018.0
20260831141554 87 177 2.0 6.0 0.00 0.00 0.00 61 1018.0
20260831141050 87 172 3.0 3.0 0.00 0.00 0.00 62 1017.9
20260831140549 86 121 1.0 3.0 0.00 0.00 0.00 64 1017.9
20260831140049 86 150 2.0 2.0 0.00 0.00 0.00 63 1018.1
20260831135547 86 154 1.0 2.0 0.00 0.00 0.00 65 1017.9
20260831135043 85 187 2.0 6.0 0.00 0.00 0.00 65 1018.0
20260831134538 85 187 2.0 3.0 0.00 0.00 0.00 65 1017.9
20260831134033 85 135 1.0 2.0 0.00 0.00 0.00 66 1017.9
20260831133533 84 175 3.0 5.0 0.00 0.00 0.00 68 1018.1
20260831133027 84 196 2.0 5.0 0.00 0.00 0.00 69 1018.0
20260831130226 81 111 0.0 1.0 0.00 0.00 0.00 73 1017.4
20260831125723 81 111 0.0 1.0 0.00 0.00 0.00 73 1017.4
20260831125220 80 128 1.0 1.0 0.00 0.00 0.00 73 1017.2
20260831124715 80 129 1.0 2.0 0.00 0.00 0.00 74 1017.2
20260831124211 79 122 2.0 2.0 0.00 0.00 0.00 76 1017.3
20260831123710 79 118 1.0 1.0 0.00 0.00 0.00 76 1017.3
20260831123209 78 119 1.0 1.0 0.00 0.00 0.00 77 1017.2
20260831122704 78 116 1.0 1.0 0.00 0.00 0.00 77 1017.1
20260831122200 78 124 0.0 1.0 0.00 0.00 0.00 77 1017.0
20260831121659 78 126 0.0 1.0 0.00 0.00 0.00 77 1017.1
20260831121156 78 138 1.0 2.0 0.00 0.00 0.00 77 1017.0
20260831120651 78 116 1.0 2.0 0.00 0.00 0.00 77 1017.0
20260831120145 78 124 1.0 1.0 0.00 0.00 0.00 77 1016.8
20260831115642 78 117 0.0 1.0 0.00 0.00 0.00 76 1016.8
20260831115137 78 128 0.0 1.0 0.00 0.00 0.00 76 1016.8
20260831114636 78 123 1.0 1.0 0.00 0.00 0.00 75 1016.6
20260831114131 79 114 0.0 1.0 0.00 0.00 0.00 75 1016.6
20260831113631 79 119 0.0 1.0 0.00 0.00 0.00 75 1016.5
20260831113126 79 122 0.0 0.0 0.00 0.00 0.00 74 1016.5
20260831112625 79 118 0.0 1.0 0.00 0.00 0.00 74 1016.4
20260831112120 79 120 0.0 0.0 0.00 0.00 0.00 74 1016.3
20260831111616 79 125 0.0 1.0 0.00 0.00 0.00 73 1016.2
20260831111112 80 119 0.0 1.0 0.00 0.00 0.00 73 1016.2
20260831110607 80 134 0.0 1.0 0.00 0.00 0.00 73 1016.2
20260831105601 80 112 0.0 0.0 0.00 0.00 0.00 72 1016.2
20260831105056 80 122 1.0 1.0 0.00 0.00 0.00 72 1016.3
20260831104552 81 121 0.0 1.0 0.00 0.00 0.00 71 1016.2
20260831104048 81 119 0.0 0.0 0.00 0.00 0.00 71 1016.4
20260831103543 81 126 0.0 1.0 0.00 0.00 0.00 71 1016.1
20260831103033 81 127 0.0 1.0 0.00 0.00 0.00 70 1016.1
20260831102527 81 150 0.0 2.0 0.00 0.00 0.00 69 1016.3
20260831102022 82 138 0.0 1.0 0.00 0.00 0.00 69 1016.3
20260831101517 82 134 1.0 2.0 0.00 0.00 0.00 69 1016.2
20260831101014 82 131 0.0 2.0 0.00 0.00 0.00 69 1016.2
20260831100509 82 131 0.0 1.0 0.00 0.00 0.00 68 1016.0
20260831100005 82 132 0.0 1.0 0.00 0.00 0.00 68 1016.2
20260831095503 82 154 0.0 1.0 0.00 0.00 0.00 68 1016.2
20260831094958 82 131 0.0 1.0 0.00 0.00 0.00 67 1016.2
20260831094454 82 124 0.0 1.0 0.00 0.00 0.00 66 1016.0
20260831093950 83 149 1.0 2.0 0.00 0.00 0.00 66 1016.1
20260831093445 83 145 1.0 2.0 0.00 0.00 0.00 66 1016.1
20260831092941 83 189 1.0 2.0 0.00 0.00 0.00 66 1016.1
20260831092437 83 142 2.0 2.0 0.00 0.00 0.00 66 1016.2
20260831091932 83 104 0.0 2.0 0.00 0.00 0.00 66 1016.1
20260831091427 83 88 0.0 1.0 0.00 0.00 0.00 66 1016.0
20260831090922 83 155 1.0 2.0 0.00 0.00 0.00 65 1016.1
20260831090418 83 73 1.0 1.0 0.00 0.00 0.00 65 1016.0
20260831085914 84 120 0.0 1.0 0.00 0.00 0.00 64 1015.8
20260831085409 84 131 1.0 1.0 0.00 0.00 0.00 63 1015.8
20260831084909 84 138 1.0 2.0 0.00 0.00 0.00 63 1015.8
20260831084404 84 178 1.0 2.0 0.00 0.00 0.00 62 1015.8
20260831083901 84 157 1.0 2.0 0.00 0.00 0.00 62 1016.0
20260831083356 84 198 1.0 2.0 0.00 0.00 0.00 62 1015.8
20260831082855 84 155 1.0 2.0 0.00 0.00 0.00 62 1015.7
20260831082349 84 138 0.0 2.0 0.00 0.00 0.00 62 1015.6
20260831081845 84 115 0.0 1.0 0.00 0.00 0.00 62 1015.8
20260831081340 84 103 0.0 1.0 0.00 0.00 0.00 62 1015.7
20260831080837 84 125 0.0 1.0 0.00 0.00 0.00 61 1015.9
20260831080336 84 150 0.0 2.0 0.00 0.00 0.00 61 1015.8
20260831075832 84 129 0.0 1.0 0.00 0.00 0.00 60 1016.0
20260831075327 84 78 0.0 2.0 0.00 0.00 0.00 60 1015.9
20260831074822 84 127 0.0 1.0 0.00 0.00 0.00 60 1015.8
20260831074321 84 204 1.0 2.0 0.00 0.00 0.00 60 1015.8
20260831073817 84 127 2.0 3.0 0.00 0.00 0.00 59 1015.7
20260831073315 84 131 0.0 2.0 0.00 0.00 0.00 59 1015.7
20260831072811 83 189 2.0 3.0 0.00 0.00 0.00 59 1015.7
20260831072307 83 121 0.0 1.0 0.00 0.00 0.00 58 1015.8
20260831071802 83 128 0.0 1.0 0.00 0.00 0.00 58 1015.7
20260831071251 83 128 0.0 1.0 0.00 0.00 0.00 58 1015.6
20260831070750 83 118 1.0 2.0 0.00 0.00 0.00 57 1015.7
20260831070250 83 111 0.0 0.0 0.00 0.00 0.00 57 1015.8
20260831065748 83 125 0.0 1.0 0.00 0.00 0.00 56 1015.7
20260831065247 83 130 1.0 2.0 0.00 0.00 0.00 56 1015.8
20260831064743 83 118 0.0 1.0 0.00 0.00 0.00 55 1015.8
20260831064237 83 124 0.0 1.0 0.00 0.00 0.00 55 1016.1
20260831063734 83 119 0.0 1.0 0.00 0.00 0.00 55 1015.8
20260831063228 84 125 0.0 1.0 0.00 0.00 0.00 54 1015.8
20260831062728 84 108 0.0 1.0 0.00 0.00 0.00 54 1015.9
20260831062223 84 97 0.0 3.0 0.00 0.00 0.00 54 1015.9
20260831061721 84 117 0.0 1.0 0.00 0.00 0.00 54 1015.7
20260831061217 84 110 0.0 2.0 0.00 0.00 0.00 54 1015.8
20260831060713 84 138 0.0 3.0 0.00 0.00 0.00 53 1015.7
20260831060212 84 127 1.0 2.0 0.00 0.00 0.00 53 1015.9
20260831055707 84 162 1.0 2.0 0.00 0.00 0.00 54 1015.9
20260831055202 84 117 1.0 2.0 0.00 0.00 0.00 54 1015.8
20260831054701 84 130 1.0 1.0 0.00 0.00 0.00 54 1015.8
20260831054156 84 123 0.0 1.0 0.00 0.00 0.00 55 1015.9
20260831053650 84 119 0.0 1.0 0.00 0.00 0.00 54 1015.8
20260831053148 85 112 0.0 1.0 0.00 0.00 0.00 53 1015.8
20260831052643 85 119 0.0 1.0 0.00 0.00 0.00 53 1015.7
20260831052142 85 130 0.0 1.0 0.00 0.00 0.00 52 1015.7
20260831051640 86 124 0.0 1.0 0.00 0.00 0.00 51 1015.6
20260831051139 86 133 2.0 2.0 0.00 0.00 0.00 51 1015.5
20260831050634 86 119 0.0 3.0 0.00 0.00 0.00 51 1015.6
20260831050133 86 140 0.0 1.0 0.00 0.00 0.00 51 1015.6
20260831045632 86 132 0.0 1.0 0.00 0.00 0.00 51 1015.5
20260831045128 86 130 0.0 2.0 0.00 0.00 0.00 51 1015.5
20260831044623 86 139 0.0 2.0 0.00 0.00 0.00 52 1015.5
20260831044118 86 132 0.0 1.0 0.00 0.00 0.00 51 1015.5
20260831043614 86 128 0.0 0.0 0.00 0.00 0.00 51 1015.5
20260831043109 86 128 0.0 0.0 0.00 0.00 0.00 51 1015.6
20260831042608 87 125 0.0 1.0 0.00 0.00 0.00 51 1015.4
20260831042103 86 131 0.0 0.0 0.00 0.00 0.00 51 1015.4
20260831041558 86 129 0.0 0.0 0.00 0.00 0.00 51 1015.4
20260831041057 87 130 0.0 0.0 0.00 0.00 0.00 51 1015.4
20260831040551 87 131 0.0 1.0 0.00 0.00 0.00 51 1015.4
20260831040046 87 123 0.0 0.0 0.00 0.00 0.00 50 1015.3
20260831035544 87 113 0.0 1.0 0.00 0.00 0.00 50 1015.4
20260831035039 88 125 0.0 0.0 0.00 0.00 0.00 49 1015.3
20260831034538 88 146 0.0 1.0 0.00 0.00 0.00 49 1015.3
20260831034034 89 126 0.0 1.0 0.00 0.00 0.00 48 1015.3
20260831033530 89 123 0.0 1.0 0.00 0.00 0.00 48 1015.4
20260831033025 89 131 0.0 1.0 0.00 0.00 0.00 48 1015.1
20260831032524 89 124 0.0 1.0 0.00 0.00 0.00 48 1015.1
20260831032020 90 118 1.0 1.0 0.00 0.00 0.00 48 1015.1
20260831031519 90 141 0.0 1.0 0.00 0.00 0.00 49 1015.0
20260831031019 90 127 0.0 2.0 0.00 0.00 0.00 49 1015.0
20260831030518 90 134 1.0 2.0 0.00 0.00 0.00 49 1014.9
20260831030017 90 123 1.0 1.0 0.00 0.00 0.00 49 1015.0
20260831025510 90 128 0.0 1.0 0.00 0.00 0.00 48 1015.0
20260831025005 90 136 0.0 1.0 0.00 0.00 0.00 47 1014.8
20260831024501 91 126 0.0 1.0 0.00 0.00 0.00 47 1014.6
20260831024000 91 123 0.0 1.0 0.00 0.00 0.00 46 1014.6
20260831023458 91 126 0.0 1.0 0.00 0.00 0.00 46 1014.7
20260831022953 91 110 1.0 1.0 0.00 0.00 0.00 46 1014.7
20260831022452 91 126 1.0 1.0 0.00 0.00 0.00 45 1014.5
20260831021947 92 127 0.0 2.0 0.00 0.00 0.00 44 1014.4
20260831021446 92 131 0.0 1.0 0.00 0.00 0.00 44 1014.4
20260831020942 92 150 0.0 1.0 0.00 0.00 0.00 44 1014.4
20260831020437 92 118 0.0 0.0 0.00 0.00 0.00 44 1014.3
20260831015931 92 126 0.0 1.0 0.00 0.00 0.00 43 1014.2
20260831015428 93 94 0.0 2.0 0.00 0.00 0.00 43 1014.2
20260831014922 93 132 1.0 1.0 0.00 0.00 0.00 43 1014.1
20260831014417 93 136 1.0 2.0 0.00 0.00 0.00 42 1013.8
20260831013913 93 140 1.0 1.0 0.00 0.00 0.00 42 1013.9
20260831013409 93 152 1.0 2.0 0.00 0.00 0.00 42 1013.8
20260831012902 93 123 1.0 1.0 0.00 0.00 0.00 41 1013.8
20260831012358 94 110 0.0 1.0 0.00 0.00 0.00 41 1013.6
20260831011858 94 117 1.0 2.0 0.00 0.00 0.00 41 1013.8
20260831011352 94 111 1.0 1.0 0.00 0.00 0.00 40 1013.7
20260831010848 94 149 0.0 2.0 0.00 0.00 0.00 39 1013.7
20260831010348 94 126 0.0 1.0 0.00 0.00 0.00 39 1013.7
20260831005844 95 121 0.0 1.0 0.00 0.00 0.00 39 1013.6
20260831005339 95 131 1.0 1.0 0.00 0.00 0.00 38 1013.6
20260831004834 95 125 1.0 2.0 0.00 0.00 0.00 37 1013.6
20260831004330 96 108 0.0 1.0 0.00 0.00 0.00 37 1013.6
20260831003825 96 134 2.0 6.0 0.00 0.00 0.00 37 1013.6
20260831003322 96 115 0.0 2.0 0.00 0.00 0.00 36 1013.6
20260831002821 96 139 1.0 2.0 0.00 0.00 0.00 36 1013.4
20260831002314 97 129 0.0 2.0 0.00 0.00 0.00 35 1013.6
20260831001811 97 162 1.0 2.0 0.00 0.00 0.00 35 1013.4
20260831001305 97 93 1.0 2.0 0.00 0.00 0.00 34 1013.3
20260831000803 97 133 2.0 3.0 0.00 0.00 0.00 34 1013.5
20260831000303 98 124 1.0 3.0 0.00 0.00 0.00 34 1013.6
20260830235801 97 135 2.0 5.0 0.00 0.00 0.00 35 1013.5
20260830235256 97 122 2.0 3.0 0.00 0.00 0.00 36 1013.8
20260830234751 98 98 2.0 3.0 0.00 0.00 0.00 34 1013.7
20260830234247 98 111 2.0 7.0 0.00 0.00 0.00 35 1013.8
20260830233743 98 139 2.0 6.0 0.00 0.00 0.00 33 1013.8
20260830233238 99 95 1.0 3.0 0.00 0.00 0.00 35 1013.7
20260830232733 98 178 2.0 2.0 0.00 0.00 0.00 33 1013.6
20260830232229 98 125 1.0 2.0 0.00 0.00 0.00 37 1013.8
20260830231726 99 108 0.0 2.0 0.00 0.00 0.00 34 1013.7
20260830231225 100 146 1.0 3.0 0.00 0.00 0.00 32 1013.6
20260830230720 100 109 2.0 3.0 0.00 0.00 0.00 33 1013.7
20260830230215 99 182 2.0 6.0 0.00 0.00 0.00 34 1013.8
20260830225709 100 129 2.0 5.0 0.00 0.00 0.00 34 1013.7
20260830225204 101 126 2.0 3.0 0.00 0.00 0.00 35 1013.7
20260830224703 102 126 1.0 3.0 0.00 0.00 0.00 31 1013.8
20260830224159 102 202 1.0 2.0 0.00 0.00 0.00 30 1013.8
20260830223655 102 177 2.0 5.0 0.00 0.00 0.00 29 1013.8
20260830223150 102 120 1.0 3.0 0.00 0.00 0.00 29 1013.8
20260830222644 100 139 2.0 3.0 0.00 0.00 0.00 32 1013.8
20260830222140 101 273 2.0 7.0 0.00 0.00 0.00 31 1013.9
20260830221636 101 130 2.0 3.0 0.00 0.00 0.00 34 1013.9
20260830221132 101 140 1.0 6.0 0.00 0.00 0.00 30 1013.8
20260830220627 100 194 1.0 5.0 0.00 0.00 0.00 31 1014.0
20260830220126 100 158 0.0 2.0 0.00 0.00 0.00 32 1014.0
20260830215625 99 114 1.0 5.0 0.00 0.00 0.00 32 1014.0
20260830215120 101 126 2.0 6.0 0.00 0.00 0.00 32 1014.0
20260830214615 101 168 1.0 6.0 0.00 0.00 0.00 31 1014.0
20260830214109 101 180 2.0 5.0 0.00 0.00 0.00 31 1013.9
20260830213603 102 145 3.0 7.0 0.00 0.00 0.00 31 1014.1
20260830213059 103 192 1.0 3.0 0.00 0.00 0.00 29 1014.0
20260830212554 103 143 2.0 6.0 0.00 0.00 0.00 30 1014.0
20260830212049 103 125 1.0 5.0 0.00 0.00 0.00 31 1014.0
20260830211544 102 245 3.0 3.0 0.00 0.00 0.00 29 1014.2
20260830211044 102 170 2.0 3.0 0.00 0.00 0.00 30 1014.3
20260830210539 101 99 2.0 7.0 0.00 0.00 0.00 33 1014.2
20260830210038 102 136 3.0 6.0 0.00 0.00 0.00 32 1014.3
20260830205536 103 127 2.0 5.0 0.00 0.00 0.00 30 1014.5
20260830205032 103 220 3.0 5.0 0.00 0.00 0.00 29 1014.6
20260830204531 102 177 1.0 2.0 0.00 0.00 0.00 31 1014.6
20260830204030 102 147 2.0 5.0 0.00 0.00 0.00 32 1014.5
20260830203527 101 159 3.0 5.0 0.00 0.00 0.00 30 1014.7
20260830203021 103 18 1.0 6.0 0.00 0.00 0.00 30 1014.8
20260830202516 103 163 2.0 7.0 0.00 0.00 0.00 30 1014.8
20260830202012 103 179 1.0 6.0 0.00 0.00 0.00 29 1014.9
20260830201511 103 165 1.0 5.0 0.00 0.00 0.00 30 1014.9
20260830201006 102 145 1.0 3.0 0.00 0.00 0.00 32 1015.1
20260830200507 102 104 2.0 5.0 0.00 0.00 0.00 35 1015.1
20260830200006 101 124 2.0 5.0 0.00 0.00 0.00 32 1015.2
20260830195501 102 90 2.0 5.0 0.00 0.00 0.00 32 1015.1
20260830194959 101 123 1.0 5.0 0.00 0.00 0.00 32 1015.3
20260830194458 103 117 1.0 5.0 0.00 0.00 0.00 30 1015.4
20260830193948 102 149 2.0 3.0 0.00 0.00 0.00 31 1015.4
20260830193447 102 90 2.0 6.0 0.00 0.00 0.00 31 1015.6
20260830192943 103 139 2.0 6.0 0.00 0.00 0.00 31 1015.6
20260830192438 103 167 2.0 3.0 0.00 0.00 0.00 31 1015.5
20260830191933 104 131 3.0 5.0 0.00 0.00 0.00 31 1015.7
20260830191432 103 171 3.0 5.0 0.00 0.00 0.00 31 1015.8
20260830190928 102 171 3.0 5.0 0.00 0.00 0.00 32 1015.7
20260830190423 100 106 3.0 7.0 0.00 0.00 0.00 33 1015.9
20260830185922 100 135 5.0 9.0 0.00 0.00 0.00 35 1016.0
20260830185418 100 135 1.0 7.0 0.00 0.00 0.00 34 1015.9
20260830184913 101 319 2.0 6.0 0.00 0.00 0.00 34 1016.0
20260830184412 102 199 6.0 8.0 0.00 0.00 0.00 34 1015.8
20260830183911 100 147 1.0 3.0 0.00 0.00 0.00 34 1015.9
20260830183406 101 147 2.0 5.0 0.00 0.00 0.00 37 1016.1
20260830182902 102 112 1.0 5.0 0.00 0.00 0.00 33 1016.1
20260830182357 101 158 1.0 7.0 0.00 0.00 0.00 34 1016.1
20260830181854 100 110 2.0 5.0 0.00 0.00 0.00 38 1016.0
20260830181349 100 125 5.0 8.0 0.00 0.00 0.00 35 1016.1
20260830180848 101 138 2.0 5.0 0.00 0.00 0.00 36 1016.2
20260830180343 102 122 1.0 3.0 0.00 0.00 0.00 33 1016.6
20260830175842 101 38 2.0 3.0 0.00 0.00 0.00 35 1016.2
20260830175337 101 79 1.0 3.0 0.00 0.00 0.00 34 1016.5
20260830174832 101 122 3.0 3.0 0.00 0.00 0.00 35 1016.5
20260830174327 99 117 3.0 5.0 0.00 0.00 0.00 35 1016.8
20260830173827 100 96 2.0 3.0 0.00 0.00 0.00 36 1016.5
20260830173323 100 131 2.0 3.0 0.00 0.00 0.00 35 1016.7
20260830172819 100 235 1.0 5.0 0.00 0.00 0.00 35 1016.6
20260830172316 100 169 4.0 7.0 0.00 0.00 0.00 36 1017.0
20260830171811 100 185 2.0 6.0 0.00 0.00 0.00 35 1017.0
20260830171306 99 157 3.0 3.0 0.00 0.00 0.00 36 1016.9
20260830170755 99 123 1.0 5.0 0.00 0.00 0.00 37 1017.1
20260830170254 99 124 2.0 5.0 0.00 0.00 0.00 36 1017.1
20260830165753 99 135 2.0 2.0 0.00 0.00 0.00 40 1017.1
20260830165249 98 187 2.0 7.0 0.00 0.00 0.00 40 1017.1
20260830164746 98 123 2.0 6.0 0.00 0.00 0.00 41 1017.3
20260830164241 98 144 2.0 6.0 0.00 0.00 0.00 40 1017.5
20260830163738 98 261 3.0 3.0 0.00 0.00 0.00 40 1017.5
20260830163233 98 191 3.0 7.0 0.00 0.00 0.00 41 1017.3
20260830162727 98 107 2.0 3.0 0.00 0.00 0.00 42 1017.5
20260830162224 97 182 2.0 5.0 0.00 0.00 0.00 43 1017.4
20260830161719 97 255 2.0 5.0 0.00 0.00 0.00 43 1017.4
20260830161218 96 143 3.0 5.0 0.00 0.00 0.00 44 1017.4
20260830160714 96 190 3.0 6.0 0.00 0.00 0.00 44 1017.8
20260830160209 95 147 3.0 6.0 0.00 0.00 0.00 45 1017.4
20260830155706 96 176 2.0 5.0 0.00 0.00 0.00 44 1017.5
20260830155201 95 165 1.0 2.0 0.00 0.00 0.00 44 1017.8
20260830154656 96 150 2.0 7.0 0.00 0.00 0.00 45 1017.5
20260830154152 95 139 2.0 5.0 0.00 0.00 0.00 46 1017.8
20260830153649 95 157 1.0 2.0 0.00 0.00 0.00 46 1017.5
20260830153149 94 155 2.0 3.0 0.00 0.00 0.00 47 1017.6
20260830152647 95 125 1.0 6.0 0.00 0.00 0.00 47 1017.5
20260830152146 95 129 2.0 3.0 0.00 0.00 0.00 48 1017.6
20260830151642 94 179 2.0 5.0 0.00 0.00 0.00 49 1017.6